Year,Month,Day,Hour,Minute,Value (Times are PST for temperature in C)
2009,05,21,00,00,8.20
2009,05,21,00,01,8.20
2009,05,21,00,02,8.20
2009,05,21,00,03,8.20
2009,05,21,00,04,8.20
2009,05,21,00,05,8.20
2009,05,21,00,06,8.20
2009,05,21,00,07,8.10
2009,05,21,00,08,8.10
2009,05,21,00,09,8.10
2009,05,21,00,10,8.10
2009,05,21,00,11,8.00
2009,05,21,00,12,8.00
2009,05,21,00,13,8.00
2009,05,21,00,14,8.00
2009,05,21,00,15,8.00
2009,05,21,00,16,7.90
2009,05,21,00,17,7.90
2009,05,21,00,18,7.90
2009,05,21,00,19,7.90
2009,05,21,00,20,7.90
2009,05,21,00,21,7.90
2009,05,21,00,22,7.80
2009,05,21,00,23,7.80
2009,05,21,00,24,7.80
2009,05,21,00,25,7.80
2009,05,21,00,26,7.80
2009,05,21,00,27,7.80
2009,05,21,00,28,7.80
2009,05,21,00,29,7.80
2009,05,21,00,30,7.80
2009,05,21,00,31,7.70
2009,05,21,00,32,7.70
2009,05,21,00,33,7.70
2009,05,21,00,34,7.70
2009,05,21,00,35,7.70
2009,05,21,00,36,7.70
2009,05,21,00,37,7.70
2009,05,21,00,38,7.70
2009,05,21,00,39,7.70
2009,05,21,00,40,7.60
2009,05,21,00,41,7.60
2009,05,21,00,42,7.60
2009,05,21,00,43,7.60
2009,05,21,00,44,7.60
2009,05,21,00,45,7.60
2009,05,21,00,46,7.60
2009,05,21,00,47,7.60
2009,05,21,00,48,7.60
2009,05,21,00,49,7.60
2009,05,21,00,50,7.60
2009,05,21,00,51,7.60
2009,05,21,00,52,7.50
2009,05,21,00,53,7.50
2009,05,21,00,54,7.50
2009,05,21,00,55,7.50
2009,05,21,00,56,7.50
2009,05,21,00,57,7.50
2009,05,21,00,58,7.50
2009,05,21,00,59,7.50
2009,05,21,01,00,7.50
2009,05,21,01,01,7.50
2009,05,21,01,02,7.50
2009,05,21,01,03,7.40
2009,05,21,01,04,7.40
2009,05,21,01,05,7.40
2009,05,21,01,06,7.40
2009,05,21,01,07,7.40
2009,05,21,01,08,7.40
2009,05,21,01,09,7.40
2009,05,21,01,10,7.40
2009,05,21,01,11,7.40
2009,05,21,01,12,7.40
2009,05,21,01,13,7.30
2009,05,21,01,14,7.30
2009,05,21,01,15,7.30
2009,05,21,01,16,7.30
2009,05,21,01,17,7.30
2009,05,21,01,18,7.30
2009,05,21,01,19,7.30
2009,05,21,01,20,7.30
2009,05,21,01,21,7.30
2009,05,21,01,22,7.30
2009,05,21,01,23,7.30
2009,05,21,01,24,7.30
2009,05,21,01,25,7.30
2009,05,21,01,26,7.30
2009,05,21,01,27,7.30
2009,05,21,01,28,7.30
2009,05,21,01,29,7.30
2009,05,21,01,30,7.20
2009,05,21,01,31,7.20
2009,05,21,01,32,7.20
2009,05,21,01,33,7.20
2009,05,21,01,34,7.20
2009,05,21,01,35,7.20
2009,05,21,01,36,7.20
2009,05,21,01,37,7.20
2009,05,21,01,38,7.10
2009,05,21,01,39,7.10
2009,05,21,01,40,7.10
2009,05,21,01,41,7.10
2009,05,21,01,42,7.10
2009,05,21,01,43,7.10
2009,05,21,01,44,7.10
2009,05,21,01,45,7.10
2009,05,21,01,46,7.10
2009,05,21,01,47,7.10
2009,05,21,01,48,7.10
2009,05,21,01,49,7.10
2009,05,21,01,50,7.10
2009,05,21,01,51,7.10
2009,05,21,01,52,7.10
2009,05,21,01,53,7.10
2009,05,21,01,54,7.00
2009,05,21,01,55,7.00
2009,05,21,01,56,7.00
2009,05,21,01,57,7.00
2009,05,21,01,58,7.00
2009,05,21,01,59,7.00
2009,05,21,02,00,7.00
2009,05,21,02,01,7.00
2009,05,21,02,02,7.00
2009,05,21,02,03,7.00
2009,05,21,02,04,7.00
2009,05,21,02,05,7.00
2009,05,21,02,06,7.00
2009,05,21,02,07,7.00
2009,05,21,02,08,7.00
2009,05,21,02,09,7.00
2009,05,21,02,10,7.00
2009,05,21,02,11,7.00
2009,05,21,02,12,6.90
2009,05,21,02,13,6.90
2009,05,21,02,14,6.90
2009,05,21,02,15,6.90
2009,05,21,02,16,6.90
2009,05,21,02,17,6.90
2009,05,21,02,18,6.80
2009,05,21,02,19,6.80
2009,05,21,02,20,6.80
2009,05,21,02,21,6.80
2009,05,21,02,22,6.80
2009,05,21,02,23,6.80
2009,05,21,02,24,6.80
2009,05,21,02,25,6.80
2009,05,21,02,26,6.80
2009,05,21,02,27,6.80
2009,05,21,02,28,6.80
2009,05,21,02,29,6.80
2009,05,21,02,30,6.80
2009,05,21,02,31,6.80
2009,05,21,02,32,6.80
2009,05,21,02,33,6.80
2009,05,21,02,34,6.80
2009,05,21,02,35,6.80
2009,05,21,02,36,6.80
2009,05,21,02,37,6.80
2009,05,21,02,38,6.70
2009,05,21,02,39,6.70
2009,05,21,02,40,6.70
2009,05,21,02,41,6.70
2009,05,21,02,42,6.70
2009,05,21,02,43,6.70
2009,05,21,02,44,6.70
2009,05,21,02,45,6.70
2009,05,21,02,46,6.70
2009,05,21,02,47,6.70
2009,05,21,02,48,6.70
2009,05,21,02,49,6.70
2009,05,21,02,50,6.70
2009,05,21,02,51,6.70
2009,05,21,02,52,6.60
2009,05,21,02,53,6.60
2009,05,21,02,54,6.60
2009,05,21,02,55,6.60
2009,05,21,02,56,6.60
2009,05,21,02,57,6.60
2009,05,21,02,58,6.60
2009,05,21,02,59,6.60
2009,05,21,03,00,6.60
2009,05,21,03,01,6.60
2009,05,21,03,02,6.60
2009,05,21,03,03,6.60
2009,05,21,03,04,6.60
2009,05,21,03,05,6.60
2009,05,21,03,06,6.60
2009,05,21,03,07,6.60
2009,05,21,03,08,6.60
2009,05,21,03,09,6.60
2009,05,21,03,10,6.60
2009,05,21,03,11,6.60
2009,05,21,03,12,6.60
2009,05,21,03,13,6.60
2009,05,21,03,14,6.50
2009,05,21,03,15,6.40
2009,05,21,03,16,6.40
2009,05,21,03,17,6.40
2009,05,21,03,18,6.40
2009,05,21,03,19,6.40
2009,05,21,03,20,6.40
2009,05,21,03,21,6.40
2009,05,21,03,22,6.40
2009,05,21,03,23,6.40
2009,05,21,03,24,6.40
2009,05,21,03,25,6.40
2009,05,21,03,26,6.40
2009,05,21,03,27,6.40
2009,05,21,03,28,6.40
2009,05,21,03,29,6.40
2009,05,21,03,30,6.40
2009,05,21,03,31,6.40
2009,05,21,03,32,6.40
2009,05,21,03,33,6.40
2009,05,21,03,34,6.40
2009,05,21,03,35,6.40
2009,05,21,03,36,6.40
2009,05,21,03,37,6.30
2009,05,21,03,38,6.30
2009,05,21,03,39,6.30
2009,05,21,03,40,6.30
2009,05,21,03,41,6.30
2009,05,21,03,42,6.30
2009,05,21,03,43,6.30
2009,05,21,03,44,6.30
2009,05,21,03,45,6.20
2009,05,21,03,46,6.20
2009,05,21,03,47,6.20
2009,05,21,03,48,6.20
2009,05,21,03,49,6.20
2009,05,21,03,50,6.20
2009,05,21,03,51,6.20
2009,05,21,03,52,6.20
2009,05,21,03,53,6.20
2009,05,21,03,54,6.20
2009,05,21,03,55,6.20
2009,05,21,03,56,6.20
2009,05,21,03,57,6.20
2009,05,21,03,58,6.20
2009,05,21,03,59,6.10
2009,05,21,04,00,6.20
2009,05,21,04,01,6.20
2009,05,21,04,02,6.10
2009,05,21,04,03,6.10
2009,05,21,04,04,6.10
2009,05,21,04,05,6.10
2009,05,21,04,06,6.10
2009,05,21,04,07,6.10
2009,05,21,04,08,6.10
2009,05,21,04,09,6.10
2009,05,21,04,10,6.10
2009,05,21,04,11,6.10
2009,05,21,04,12,6.10
2009,05,21,04,13,6.10
2009,05,21,04,14,6.10
2009,05,21,04,15,6.10
2009,05,21,04,16,6.10
2009,05,21,04,17,6.10
2009,05,21,04,18,6.10
2009,05,21,04,19,6.10
2009,05,21,04,20,6.10
2009,05,21,04,21,6.10
2009,05,21,04,22,6.10
2009,05,21,04,23,6.10
2009,05,21,04,24,6.10
2009,05,21,04,25,6.10
2009,05,21,04,26,6.10
2009,05,21,04,27,6.10
2009,05,21,04,28,6.10
2009,05,21,04,29,6.10
2009,05,21,04,30,6.10
2009,05,21,04,31,6.10
2009,05,21,04,32,6.10
2009,05,21,04,33,6.00
2009,05,21,04,34,6.00
2009,05,21,04,35,6.00
2009,05,21,04,36,6.00
2009,05,21,04,37,6.00
2009,05,21,04,38,6.00
2009,05,21,04,39,5.90
2009,05,21,04,40,5.90
2009,05,21,04,41,5.90
2009,05,21,04,42,5.90
2009,05,21,04,43,5.90
2009,05,21,04,44,5.90
2009,05,21,04,45,5.90
2009,05,21,04,46,5.90
2009,05,21,04,47,5.90
2009,05,21,04,48,5.90
2009,05,21,04,49,5.90
2009,05,21,04,50,5.90
2009,05,21,04,51,5.80
2009,05,21,04,52,5.80
2009,05,21,04,53,5.80
2009,05,21,04,54,5.80
2009,05,21,04,55,5.80
2009,05,21,04,56,5.80
2009,05,21,04,57,5.80
2009,05,21,04,58,5.80
2009,05,21,04,59,5.80
2009,05,21,05,00,5.80
2009,05,21,05,01,5.80
2009,05,21,05,02,5.80
2009,05,21,05,03,5.80
2009,05,21,05,04,5.80
2009,05,21,05,05,5.80
2009,05,21,05,06,5.80
2009,05,21,05,07,5.80
2009,05,21,05,08,5.80
2009,05,21,05,09,5.80
2009,05,21,05,10,5.80
2009,05,21,05,11,5.80
2009,05,21,05,12,5.80
2009,05,21,05,13,5.80
2009,05,21,05,14,5.70
2009,05,21,05,15,5.70
2009,05,21,05,16,5.70
2009,05,21,05,17,5.70
2009,05,21,05,18,5.70
2009,05,21,05,19,5.70
2009,05,21,05,20,5.70
2009,05,21,05,21,5.70
2009,05,21,05,22,5.70
2009,05,21,05,23,5.70
2009,05,21,05,24,5.70
2009,05,21,05,25,5.70
2009,05,21,05,26,5.70
2009,05,21,05,27,5.70
2009,05,21,05,28,5.70
2009,05,21,05,29,5.70
2009,05,21,05,30,5.70
2009,05,21,05,31,5.70
2009,05,21,05,32,5.70
2009,05,21,05,33,5.70
2009,05,21,05,34,5.70
2009,05,21,05,35,5.70
2009,05,21,05,36,5.70
2009,05,21,05,37,5.70
2009,05,21,05,38,5.70
2009,05,21,05,39,5.70
2009,05,21,05,40,5.70
2009,05,21,05,41,5.70
2009,05,21,05,42,5.70
2009,05,21,05,43,5.70
2009,05,21,05,44,5.80
2009,05,21,05,45,5.80
2009,05,21,05,46,5.80
2009,05,21,05,47,5.90
2009,05,21,05,48,5.90
2009,05,21,05,49,5.90
2009,05,21,05,50,5.90
2009,05,21,05,51,5.90
2009,05,21,05,52,6.00
2009,05,21,05,53,6.00
2009,05,21,05,54,6.00
2009,05,21,05,55,6.00
2009,05,21,05,56,6.10
2009,05,21,05,57,6.10
2009,05,21,05,58,6.20
2009,05,21,05,59,6.20
2009,05,21,06,00,6.20
2009,05,21,06,01,6.20
2009,05,21,06,02,6.30
2009,05,21,06,03,6.30
2009,05,21,06,04,6.40
2009,05,21,06,05,6.40
2009,05,21,06,06,6.40
2009,05,21,06,07,6.50
2009,05,21,06,08,6.60
2009,05,21,06,09,6.60
2009,05,21,06,10,6.60
2009,05,21,06,11,6.60
2009,05,21,06,12,6.70
2009,05,21,06,13,6.70
2009,05,21,06,14,6.80
2009,05,21,06,15,6.80
2009,05,21,06,16,6.80
2009,05,21,06,17,6.80
2009,05,21,06,18,6.80
2009,05,21,06,19,6.80
2009,05,21,06,20,6.80
2009,05,21,06,21,6.90
2009,05,21,06,22,6.90
2009,05,21,06,23,7.00
2009,05,21,06,24,7.00
2009,05,21,06,25,7.00
2009,05,21,06,26,7.00
2009,05,21,06,27,7.10
2009,05,21,06,28,7.10
2009,05,21,06,29,7.10
2009,05,21,06,30,7.20
2009,05,21,06,31,7.20
2009,05,21,06,32,7.30
2009,05,21,06,33,7.30
2009,05,21,06,34,7.30
2009,05,21,06,35,7.40
2009,05,21,06,36,7.50
2009,05,21,06,37,7.50
2009,05,21,06,38,7.60
2009,05,21,06,39,7.70
2009,05,21,06,40,7.70
2009,05,21,06,41,7.80
2009,05,21,06,42,7.80
2009,05,21,06,43,7.80
2009,05,21,06,44,7.90
2009,05,21,06,45,8.00
2009,05,21,06,46,8.00
2009,05,21,06,47,8.10
2009,05,21,06,48,8.10
2009,05,21,06,49,8.20
2009,05,21,06,50,8.20
2009,05,21,06,51,8.20
2009,05,21,06,52,8.30
2009,05,21,06,53,8.40
2009,05,21,06,54,8.40
2009,05,21,06,55,8.50
2009,05,21,06,56,8.50
2009,05,21,06,57,8.60
2009,05,21,06,58,8.60
2009,05,21,06,59,8.70
2009,05,21,07,00,8.70
2009,05,21,07,01,8.80
2009,05,21,07,02,8.90
2009,05,21,07,03,8.90
2009,05,21,07,04,9.00
2009,05,21,07,05,9.00
2009,05,21,07,06,9.10
2009,05,21,07,07,9.20
2009,05,21,07,08,9.20
2009,05,21,07,09,9.30
2009,05,21,07,10,9.30
2009,05,21,07,11,9.40
2009,05,21,07,12,9.50
2009,05,21,07,13,9.50
2009,05,21,07,14,9.50
2009,05,21,07,15,9.50
2009,05,21,07,16,9.50
2009,05,21,07,17,9.50
2009,05,21,07,18,9.50
2009,05,21,07,19,9.90
2009,05,21,07,20,9.90
2009,05,21,07,21,9.90
2009,05,21,07,22,10.00
2009,05,21,07,23,10.10
2009,05,21,07,24,10.10
2009,05,21,07,25,10.10
2009,05,21,07,26,10.10
2009,05,21,07,27,10.10
2009,05,21,07,28,10.10
2009,05,21,07,29,10.10
2009,05,21,07,30,10.10
2009,05,21,07,31,10.10
2009,05,21,07,32,10.10
2009,05,21,07,33,10.10
2009,05,21,07,34,10.10
2009,05,21,07,35,10.10
2009,05,21,07,36,10.10
2009,05,21,07,37,10.20
2009,05,21,07,38,10.20
2009,05,21,07,39,10.20
2009,05,21,07,40,10.20
2009,05,21,07,41,10.20
2009,05,21,07,42,10.20
2009,05,21,07,43,10.30
2009,05,21,07,44,10.30
2009,05,21,07,45,10.30
2009,05,21,07,46,10.40
2009,05,21,07,47,10.40
2009,05,21,07,48,10.40
2009,05,21,07,49,10.50
2009,05,21,07,50,10.60
2009,05,21,07,51,10.60
2009,05,21,07,52,10.60
2009,05,21,07,53,10.70
2009,05,21,07,54,10.70
2009,05,21,07,55,10.70
2009,05,21,07,56,10.80
2009,05,21,07,57,10.90
2009,05,21,07,58,10.90
2009,05,21,07,59,10.90
2009,05,21,08,00,11.00
2009,05,21,08,01,11.10
2009,05,21,08,02,11.10
2009,05,21,08,03,11.20
2009,05,21,08,04,11.20
2009,05,21,08,05,11.30
2009,05,21,08,06,11.30
2009,05,21,08,07,11.40
2009,05,21,08,08,11.40
2009,05,21,08,09,11.40
2009,05,21,08,10,11.50
2009,05,21,08,11,11.60
2009,05,21,08,12,11.60
2009,05,21,08,13,11.60
2009,05,21,08,14,11.60
2009,05,21,08,15,11.70
2009,05,21,08,16,11.70
2009,05,21,08,17,11.60
2009,05,21,08,18,11.60
2009,05,21,08,19,11.60
2009,05,21,08,20,11.60
2009,05,21,08,21,11.60
2009,05,21,08,22,11.60
2009,05,21,08,23,11.60
2009,05,21,08,24,11.60
2009,05,21,08,25,11.70
2009,05,21,08,26,11.70
2009,05,21,08,27,11.80
2009,05,21,08,28,11.80
2009,05,21,08,29,11.90
2009,05,21,08,30,12.00
2009,05,21,08,31,12.10
2009,05,21,08,32,12.10
2009,05,21,08,33,12.20
2009,05,21,08,34,12.30
2009,05,21,08,35,12.30
2009,05,21,08,36,12.30
2009,05,21,08,37,12.30
2009,05,21,08,38,12.30
2009,05,21,08,39,12.30
2009,05,21,08,40,12.30
2009,05,21,08,41,12.30
2009,05,21,08,42,12.30
2009,05,21,08,43,12.40
2009,05,21,08,44,12.40
2009,05,21,08,45,12.40
2009,05,21,08,46,12.40
2009,05,21,08,47,12.50
2009,05,21,08,48,12.50
2009,05,21,08,49,12.60
2009,05,21,08,50,12.70
2009,05,21,08,51,12.80
2009,05,21,08,52,12.90
2009,05,21,08,53,12.90
2009,05,21,08,54,13.00
2009,05,21,08,55,13.00
2009,05,21,08,56,13.00
2009,05,21,08,57,13.00
2009,05,21,08,58,13.00
2009,05,21,08,59,13.00
2009,05,21,09,00,13.00
2009,05,21,09,01,13.10
2009,05,21,09,02,13.10
2009,05,21,09,03,13.30
2009,05,21,09,04,13.30
2009,05,21,09,05,13.50
2009,05,21,09,06,13.50
2009,05,21,09,07,13.60
2009,05,21,09,08,13.60
2009,05,21,09,09,13.50
2009,05,21,09,10,13.50
2009,05,21,09,11,13.50
2009,05,21,09,12,13.50
2009,05,21,09,13,13.50
2009,05,21,09,14,13.50
2009,05,21,09,15,13.50
2009,05,21,09,16,13.50
2009,05,21,09,17,13.50
2009,05,21,09,18,13.40
2009,05,21,09,19,13.30
2009,05,21,09,20,13.30
2009,05,21,09,21,13.30
2009,05,21,09,22,13.30
2009,05,21,09,23,13.20
2009,05,21,09,24,13.20
2009,05,21,09,25,13.10
2009,05,21,09,26,13.10
2009,05,21,09,27,13.00
2009,05,21,09,28,12.90
2009,05,21,09,29,12.80
2009,05,21,09,30,12.80
2009,05,21,09,31,12.90
2009,05,21,09,32,13.10
2009,05,21,09,33,13.20
2009,05,21,09,34,13.20
2009,05,21,09,35,13.20
2009,05,21,09,36,13.20
2009,05,21,09,37,13.30
2009,05,21,09,38,13.30
2009,05,21,09,39,13.50
2009,05,21,09,40,13.70
2009,05,21,09,41,13.80
2009,05,21,09,42,13.80
2009,05,21,09,43,13.90
2009,05,21,09,44,13.80
2009,05,21,09,45,13.80
2009,05,21,09,46,13.80
2009,05,21,09,47,13.90
2009,05,21,09,48,14.00
2009,05,21,09,49,14.10
2009,05,21,09,50,14.10
2009,05,21,09,51,14.20
2009,05,21,09,52,14.30
2009,05,21,09,53,14.30
2009,05,21,09,54,14.30
2009,05,21,09,55,14.30
2009,05,21,09,56,14.20
2009,05,21,09,57,14.00
2009,05,21,09,58,14.00
2009,05,21,09,59,13.90
2009,05,21,10,00,13.90
2009,05,21,10,01,13.90
2009,05,21,10,02,13.90
2009,05,21,10,03,13.90
2009,05,21,10,04,13.90
2009,05,21,10,05,13.80
2009,05,21,10,06,13.70
2009,05,21,10,07,13.70
2009,05,21,10,08,13.80
2009,05,21,10,09,13.90
2009,05,21,10,10,14.00
2009,05,21,10,11,14.00
2009,05,21,10,12,14.00
2009,05,21,10,13,14.10
2009,05,21,10,14,14.10
2009,05,21,10,15,14.20
2009,05,21,10,16,14.20
2009,05,21,10,17,14.20
2009,05,21,10,18,14.20
2009,05,21,10,19,14.20
2009,05,21,10,20,14.20
2009,05,21,10,21,14.20
2009,05,21,10,22,14.10
2009,05,21,10,23,13.90
2009,05,21,10,24,13.70
2009,05,21,10,25,13.60
2009,05,21,10,26,13.40
2009,05,21,10,27,13.20
2009,05,21,10,28,13.10
2009,05,21,10,29,13.10
2009,05,21,10,30,13.10
2009,05,21,10,31,13.00
2009,05,21,10,32,12.90
2009,05,21,10,33,12.90
2009,05,21,10,34,12.90
2009,05,21,10,35,12.90
2009,05,21,10,36,12.90
2009,05,21,10,37,12.80
2009,05,21,10,38,12.60
2009,05,21,10,39,12.60
2009,05,21,10,40,12.60
2009,05,21,10,41,12.70
2009,05,21,10,42,12.70
2009,05,21,10,43,12.70
2009,05,21,10,44,12.70
2009,05,21,10,45,12.60
2009,05,21,10,46,12.60
2009,05,21,10,47,12.70
2009,05,21,10,48,12.80
2009,05,21,10,49,12.70
2009,05,21,10,50,12.60
2009,05,21,10,51,12.70
2009,05,21,10,52,12.70
2009,05,21,10,53,12.70
2009,05,21,10,54,12.80
2009,05,21,10,55,12.80
2009,05,21,10,56,12.80
2009,05,21,10,57,12.60
2009,05,21,10,58,12.20
2009,05,21,10,59,12.10
2009,05,21,11,00,12.00
2009,05,21,11,01,12.10
2009,05,21,11,02,12.10
2009,05,21,11,03,12.30
2009,05,21,11,04,12.30
2009,05,21,11,05,12.50
2009,05,21,11,06,12.60
2009,05,21,11,07,12.80
2009,05,21,11,08,12.90
2009,05,21,11,09,13.10
2009,05,21,11,10,13.10
2009,05,21,11,11,13.10
2009,05,21,11,12,12.80
2009,05,21,11,13,12.70
2009,05,21,11,14,12.80
2009,05,21,11,15,12.80
2009,05,21,11,16,12.80
2009,05,21,11,17,12.90
2009,05,21,11,18,12.90
2009,05,21,11,19,12.80
2009,05,21,11,20,12.70
2009,05,21,11,21,12.60
2009,05,21,11,22,12.50
2009,05,21,11,23,12.40
2009,05,21,11,24,12.30
2009,05,21,11,25,12.40
2009,05,21,11,26,12.50
2009,05,21,11,27,12.50
2009,05,21,11,28,12.60
2009,05,21,11,29,12.70
2009,05,21,11,30,12.80
2009,05,21,11,31,12.90
2009,05,21,11,32,13.10
2009,05,21,11,33,13.10
2009,05,21,11,34,12.90
2009,05,21,11,35,12.80
2009,05,21,11,36,12.70
2009,05,21,11,37,12.70
2009,05,21,11,38,12.60
2009,05,21,11,39,12.50
2009,05,21,11,40,12.60
2009,05,21,11,41,12.60
2009,05,21,11,42,12.60
2009,05,21,11,43,12.60
2009,05,21,11,44,12.70
2009,05,21,11,45,12.70
2009,05,21,11,46,12.70
2009,05,21,11,47,12.70
2009,05,21,11,48,12.70
2009,05,21,11,49,12.80
2009,05,21,11,50,12.90
2009,05,21,11,51,13.00
2009,05,21,11,52,12.90
2009,05,21,11,53,12.90
2009,05,21,11,54,12.90
2009,05,21,11,55,13.00
2009,05,21,11,56,13.00
2009,05,21,11,57,13.00
2009,05,21,11,58,12.90
2009,05,21,11,59,13.10
2009,05,21,12,00,13.00
2009,05,21,12,01,13.00
2009,05,21,12,02,13.10
2009,05,21,12,03,13.00
2009,05,21,12,04,13.00
2009,05,21,12,05,13.00
2009,05,21,12,06,13.10
2009,05,21,12,07,13.30
2009,05,21,12,08,13.20
2009,05,21,12,09,13.10
2009,05,21,12,10,13.10
2009,05,21,12,11,12.90
2009,05,21,12,12,12.90
2009,05,21,12,13,12.90
2009,05,21,12,14,12.90
2009,05,21,12,15,12.90
2009,05,21,12,16,12.90
2009,05,21,12,17,13.00
2009,05,21,12,18,12.90
2009,05,21,12,19,13.00
2009,05,21,12,20,13.00
2009,05,21,12,21,13.00
2009,05,21,12,22,13.10
2009,05,21,12,23,13.20
2009,05,21,12,24,13.20
2009,05,21,12,25,13.30
2009,05,21,12,26,13.50
2009,05,21,12,27,13.50
2009,05,21,12,28,13.50
2009,05,21,12,29,13.40
2009,05,21,12,30,13.10
2009,05,21,12,31,12.90
2009,05,21,12,32,12.70
2009,05,21,12,33,12.60
2009,05,21,12,34,12.50
2009,05,21,12,35,12.50
2009,05,21,12,36,12.30
2009,05,21,12,37,12.30
2009,05,21,12,38,12.30
2009,05,21,12,39,12.40
2009,05,21,12,40,12.40
2009,05,21,12,41,12.40
2009,05,21,12,42,12.30
2009,05,21,12,43,12.40
2009,05,21,12,44,12.60
2009,05,21,12,45,12.80
2009,05,21,12,46,12.90
2009,05,21,12,47,12.90
2009,05,21,12,48,13.00
2009,05,21,12,49,13.20
2009,05,21,12,50,13.20
2009,05,21,12,51,13.30
2009,05,21,12,52,13.40
2009,05,21,12,53,13.50
2009,05,21,12,54,13.60
2009,05,21,12,55,13.70
2009,05,21,12,56,13.70
2009,05,21,12,57,13.70
2009,05,21,12,58,13.60
2009,05,21,12,59,13.40
2009,05,21,13,00,13.50
2009,05,21,13,01,13.50
2009,05,21,13,02,13.40
2009,05,21,13,03,13.30
2009,05,21,13,04,13.30
2009,05,21,13,05,13.20
2009,05,21,13,06,13.20
2009,05,21,13,07,13.10
2009,05,21,13,08,13.20
2009,05,21,13,09,13.30
2009,05,21,13,10,13.30
2009,05,21,13,11,13.40
2009,05,21,13,12,13.50
2009,05,21,13,13,13.50
2009,05,21,13,14,13.50
2009,05,21,13,15,13.50
2009,05,21,13,16,13.60
2009,05,21,13,17,13.70
2009,05,21,13,18,13.70
2009,05,21,13,19,13.80
2009,05,21,13,20,13.90
2009,05,21,13,21,14.00
2009,05,21,13,22,13.80
2009,05,21,13,23,13.60
2009,05,21,13,24,13.40
2009,05,21,13,25,13.30
2009,05,21,13,26,13.40
2009,05,21,13,27,13.60
2009,05,21,13,28,13.70
2009,05,21,13,29,13.70
2009,05,21,13,30,13.70
2009,05,21,13,31,13.70
2009,05,21,13,32,13.70
2009,05,21,13,33,13.70
2009,05,21,13,34,13.80
2009,05,21,13,35,13.80
2009,05,21,13,36,13.60
2009,05,21,13,37,13.60
2009,05,21,13,38,13.70
2009,05,21,13,39,13.80
2009,05,21,13,40,13.90
2009,05,21,13,41,13.90
2009,05,21,13,42,14.00
2009,05,21,13,43,14.10
2009,05,21,13,44,14.20
2009,05,21,13,45,14.20
2009,05,21,13,46,14.40
2009,05,21,13,47,14.60
2009,05,21,13,48,14.70
2009,05,21,13,49,14.80
2009,05,21,13,50,14.80
2009,05,21,13,51,14.90
2009,05,21,13,52,14.90
2009,05,21,13,53,14.80
2009,05,21,13,54,14.80
2009,05,21,13,55,14.70
2009,05,21,13,56,14.60
2009,05,21,13,57,14.40
2009,05,21,13,58,14.20
2009,05,21,13,59,14.10
2009,05,21,14,00,14.00
2009,05,21,14,01,13.90
2009,05,21,14,02,13.90
2009,05,21,14,03,13.80
2009,05,21,14,04,13.80
2009,05,21,14,05,13.70
2009,05,21,14,06,13.70
2009,05,21,14,07,13.80
2009,05,21,14,08,13.80
2009,05,21,14,09,13.80
2009,05,21,14,10,13.80
2009,05,21,14,11,13.80
2009,05,21,14,12,13.80
2009,05,21,14,13,13.90
2009,05,21,14,14,14.10
2009,05,21,14,15,14.20
2009,05,21,14,16,14.40
2009,05,21,14,17,14.50
2009,05,21,14,18,14.50
2009,05,21,14,19,14.60
2009,05,21,14,20,14.50
2009,05,21,14,21,14.50
2009,05,21,14,22,14.50
2009,05,21,14,23,14.60
2009,05,21,14,24,14.70
2009,05,21,14,25,14.80
2009,05,21,14,26,14.80
2009,05,21,14,27,14.80
2009,05,21,14,28,14.80
2009,05,21,14,29,14.80
2009,05,21,14,30,15.00
2009,05,21,14,31,15.00
2009,05,21,14,32,14.90
2009,05,21,14,33,14.90
2009,05,21,14,34,14.90
2009,05,21,14,35,14.80
2009,05,21,14,36,14.70
2009,05,21,14,37,14.70
2009,05,21,14,38,14.60
2009,05,21,14,39,14.50
2009,05,21,14,40,14.60
2009,05,21,14,41,14.70
2009,05,21,14,42,14.70
2009,05,21,14,43,14.80
2009,05,21,14,44,14.80
2009,05,21,14,45,14.90
2009,05,21,14,46,15.10
2009,05,21,14,47,15.00
2009,05,21,14,48,15.00
2009,05,21,14,49,14.80
2009,05,21,14,50,14.70
2009,05,21,14,51,14.60
2009,05,21,14,52,14.70
2009,05,21,14,53,14.60
2009,05,21,14,54,14.50
2009,05,21,14,55,14.40
2009,05,21,14,56,14.20
2009,05,21,14,57,14.20
2009,05,21,14,58,14.20
2009,05,21,14,59,14.20
2009,05,21,15,00,14.20
2009,05,21,15,01,14.30
2009,05,21,15,02,14.40
2009,05,21,15,03,14.40
2009,05,21,15,04,14.40
2009,05,21,15,05,14.30
2009,05,21,15,06,14.10
2009,05,21,15,07,14.00
2009,05,21,15,08,14.00
2009,05,21,15,09,13.90
2009,05,21,15,10,13.90
2009,05,21,15,11,14.00
2009,05,21,15,12,14.20
2009,05,21,15,13,14.20
2009,05,21,15,14,14.30
2009,05,21,15,15,14.30
2009,05,21,15,16,14.30
2009,05,21,15,17,14.30
2009,05,21,15,18,14.30
2009,05,21,15,19,14.20
2009,05,21,15,20,14.20
2009,05,21,15,21,14.10
2009,05,21,15,22,14.10
2009,05,21,15,23,14.10
2009,05,21,15,24,14.30
2009,05,21,15,25,14.40
2009,05,21,15,26,14.50
2009,05,21,15,27,14.50
2009,05,21,15,28,14.50
2009,05,21,15,29,14.50
2009,05,21,15,30,14.60
2009,05,21,15,31,14.70
2009,05,21,15,32,14.60
2009,05,21,15,33,14.60
2009,05,21,15,34,14.70
2009,05,21,15,35,14.70
2009,05,21,15,36,14.70
2009,05,21,15,37,14.60
2009,05,21,15,38,14.60
2009,05,21,15,39,14.60
2009,05,21,15,40,14.60
2009,05,21,15,41,14.60
2009,05,21,15,42,14.50
2009,05,21,15,43,14.50
2009,05,21,15,44,14.40
2009,05,21,15,45,14.40
2009,05,21,15,46,14.50
2009,05,21,15,47,14.60
2009,05,21,15,48,14.60
2009,05,21,15,49,14.60
2009,05,21,15,50,14.70
2009,05,21,15,51,14.70
2009,05,21,15,52,14.80
2009,05,21,15,53,14.80
2009,05,21,15,54,14.90
2009,05,21,15,55,15.10
2009,05,21,15,56,15.20
2009,05,21,15,57,15.30
2009,05,21,15,58,15.40
2009,05,21,15,59,15.50
2009,05,21,16,00,15.50
2009,05,21,16,01,15.60
2009,05,21,16,02,15.60
2009,05,21,16,03,15.70
2009,05,21,16,04,15.80
2009,05,21,16,05,15.80
2009,05,21,16,06,15.80
2009,05,21,16,07,15.80
2009,05,21,16,08,15.80
2009,05,21,16,09,15.80
2009,05,21,16,10,15.80
2009,05,21,16,11,15.80
2009,05,21,16,12,15.90
2009,05,21,16,13,15.90
2009,05,21,16,14,15.80
2009,05,21,16,15,15.80
2009,05,21,16,16,15.80
2009,05,21,16,17,15.80
2009,05,21,16,18,15.80
2009,05,21,16,19,15.80
2009,05,21,16,20,15.90
2009,05,21,16,21,15.90
2009,05,21,16,22,15.80
2009,05,21,16,23,15.80
2009,05,21,16,24,15.80
2009,05,21,16,25,15.80
2009,05,21,16,26,15.90
2009,05,21,16,27,15.90
2009,05,21,16,28,16.00
2009,05,21,16,29,16.10
2009,05,21,16,30,16.10
2009,05,21,16,31,16.10
2009,05,21,16,32,16.10
2009,05,21,16,33,16.10
2009,05,21,16,34,16.10
2009,05,21,16,35,16.00
2009,05,21,16,36,16.00
2009,05,21,16,37,16.10
2009,05,21,16,38,16.00
2009,05,21,16,39,15.90
2009,05,21,16,40,15.90
2009,05,21,16,41,15.80
2009,05,21,16,42,15.80
2009,05,21,16,43,15.80
2009,05,21,16,44,15.80
2009,05,21,16,45,15.80
2009,05,21,16,46,15.80
2009,05,21,16,47,15.90
2009,05,21,16,48,16.00
2009,05,21,16,49,16.10
2009,05,21,16,50,16.10
2009,05,21,16,51,16.10
2009,05,21,16,52,16.10
2009,05,21,16,53,16.10
2009,05,21,16,54,16.10
2009,05,21,16,55,16.10
2009,05,21,16,56,16.10
2009,05,21,16,57,16.10
2009,05,21,16,58,16.10
2009,05,21,16,59,16.10
2009,05,21,17,00,16.10
2009,05,21,17,01,16.10
2009,05,21,17,02,16.10
2009,05,21,17,03,16.20
2009,05,21,17,04,16.10
2009,05,21,17,05,16.10
2009,05,21,17,06,16.10
2009,05,21,17,07,16.10
2009,05,21,17,08,16.10
2009,05,21,17,09,16.10
2009,05,21,17,10,16.10
2009,05,21,17,11,16.10
2009,05,21,17,12,16.00
2009,05,21,17,13,15.90
2009,05,21,17,14,15.90
2009,05,21,17,15,15.80
2009,05,21,17,16,15.80
2009,05,21,17,17,15.80
2009,05,21,17,18,15.80
2009,05,21,17,19,15.80
2009,05,21,17,20,15.80
2009,05,21,17,21,15.90
2009,05,21,17,22,15.90
2009,05,21,17,23,16.00
2009,05,21,17,24,16.10
2009,05,21,17,25,16.10
2009,05,21,17,26,16.10
2009,05,21,17,27,16.10
2009,05,21,17,28,16.10
2009,05,21,17,29,16.10
2009,05,21,17,30,16.10
2009,05,21,17,31,16.10
2009,05,21,17,32,15.90
2009,05,21,17,33,15.70
2009,05,21,17,34,15.60
2009,05,21,17,35,15.40
2009,05,21,17,36,15.30
2009,05,21,17,37,15.20
2009,05,21,17,38,15.20